Fullerton, CA

9:27 PM PDT on March 23, 2017 (GMT -0700)
Fullerton Municipal

Weather History for KFUL - March, 2013

Change the Weather History Date:

Friday, March 8, 2013

  Actual Average Record
Temperature  
Mean Temperature 55 °F 60 °F  
Max Temperature 60 °F 69 °F 94 °F (2004)
Min Temperature 50 °F 50 °F 42 °F (2012)
Degree Days  
Heating Degree Days 10 6  
Month to date heating degree days 26 48  
Since 1 July heating degree days 697 970  
Cooling Degree Days 0 0  
Month to date cooling degree days 11 4  
Year to date cooling degree days 23 13  
Growing Degree Days 4 (Base 50)    
Moisture  
Dew Point 44 °F    
Average Humidity 67    
Maximum Humidity 83    
Minimum Humidity 51    
Precipitation  
Precipitation 0.62 in 0.11 in 0.63 in (2013)
Month to date precipitation 0.62 1.12  
Year to date precipitation 2.02 7.40  
Since 1 July precipitation 5.33  
Snow  
Snow 0.00 in - - ()
Month to date snowfall 0.0  
Year to date snowfall 0.0  
Snow Depth 0.00 in    
Sea Level Pressure  
Sea Level Pressure 29.88 in    
Wind  
Wind Speed 6 mph (SW)    
Max Wind Speed 14 mph    
Max Gust Speed 21 mph    
Visibility 8 miles    
Events Rain    
T = Trace of Precipitation, MM = Missing Value Source: NWS Daily Summary

Daily Weather History Graph

Daily Weather History Graph

Search for Another Location

Airport or City:

Trip Planner

Search our weather history database for the weather conditions in past years. The results will help you decide how hot, cold, wet, or windy it might be!

Date:

Astronomy

Mar. 08, 2013 Rise Set
Actual Time 6:11 AM PST 5:54 PM PST
Civil Twilight 5:46 AM PST 6:19 PM PST
Nautical Twilight 5:17 AM PST 6:48 PM PST
Astronomical Twilight 4:48 AM PST 7:17 PM PST
Moon 3:51 AM PST (3/8) 3:01 PM PST (3/8)
Length of Visible Light 12h 33m
Length of Day
11h 43m
Waning Crescent, 11% of the Moon is Illuminated
Mar 8
Waning Crescent
Mar 11
New
Mar 19
First Quarter
Mar 27
Full
Apr 2
Last Quarter

Hourly Weather History & Observations

Time (PST) Temp. Dew Point Humidity Pressure Visibility Wind Dir Wind Speed Gust Speed Precip Events Conditions
12:53 AM 55.9 °F 46.0 °F 69% 29.83 in 9.0 mi ESE 6.9 mph - 0.02 in Rain Light Rain
1:53 AM 54.0 °F 46.0 °F 75% 29.80 in 7.0 mi ESE 8.1 mph - 0.05 in Rain Rain
2:37 AM 53.6 °F 46.4 °F 77% 29.80 in 2.5 mi West 10.4 mph 17.3 mph 0.09 in Rain Heavy Rain
2:42 AM 51.8 °F 46.4 °F 82% 29.80 in 1.8 mi WNW 9.2 mph 17.3 mph 0.14 in Rain Heavy Rain
2:53 AM 50.0 °F 45.0 °F 83% 29.80 in 1.5 mi WNW 6.9 mph - 0.23 in Rain Heavy Rain
2:59 AM 50.0 °F 44.6 °F 82% 29.80 in 3.0 mi West 4.6 mph - 0.01 in Rain Rain
3:09 AM 51.8 °F 46.4 °F 82% 29.80 in 5.0 mi NW 4.6 mph - 0.03 in Rain Rain
3:25 AM 51.8 °F 46.4 °F 82% 29.80 in 9.0 mi West 5.8 mph - 0.03 in Rain Light Rain
3:32 AM 51.8 °F 46.4 °F 82% 29.81 in 6.0 mi West 8.1 mph - 0.04 in Rain Light Rain
3:39 AM 51.8 °F 46.4 °F 82% 29.81 in 3.0 mi West 6.9 mph - 0.06 in Rain Rain
3:50 AM 51.8 °F 46.4 °F 82% 29.81 in 3.0 mi West 4.6 mph - 0.08 in Rain Rain
3:53 AM 51.1 °F 46.9 °F 86% 29.81 in 3.0 mi Variable 4.6 mph - 0.09 in Rain Rain
4:01 AM 51.8 °F 46.4 °F 82% 29.80 in 2.5 mi NNW 8.1 mph - 0.04 in Rain Heavy Rain
4:10 AM 50.0 °F 44.6 °F 82% 29.79 in 5.0 mi Variable 4.6 mph - 0.06 in Rain Rain
4:53 AM 50.0 °F 45.0 °F 83% 29.81 in 10.0 mi Calm Calm - 0.07 in Rain Light Rain
5:42 AM 51.8 °F 44.6 °F 76% 29.82 in 10.0 mi South 3.5 mph - 0.00 in   Overcast
5:53 AM 51.1 °F 45.0 °F 80% 29.83 in 10.0 mi SSW 3.5 mph - 0.00 in   Overcast
6:11 AM 51.8 °F 44.6 °F 76% 29.82 in 10.0 mi Calm Calm - 0.00 in   Overcast
6:53 AM 51.1 °F 45.0 °F 80% 29.86 in 10.0 mi South 4.6 mph - 0.00 in   Mostly Cloudy
7:53 AM 53.1 °F 45.0 °F 74% 29.88 in 10.0 mi SSE 3.5 mph - N/A   Partly Cloudy
8:53 AM 55.0 °F 43.0 °F 64% 29.88 in 10.0 mi Variable 3.5 mph - N/A   Scattered Clouds
9:53 AM 55.9 °F 39.9 °F 55% 29.89 in 10.0 mi West 4.6 mph - N/A   Overcast
10:53 AM 51.1 °F 39.9 °F 66% 29.90 in 3.0 mi SSW 4.6 mph 17.3 mph 0.14 in Rain Heavy Rain
11:00 AM 51.8 °F 39.2 °F 62% 29.89 in 2.0 mi SSE 6.9 mph - 0.01 in Rain Light Rain
11:07 AM 53.6 °F 42.8 °F 67% 29.90 in 4.0 mi SSE 5.8 mph - 0.02 in Rain Rain
11:53 AM 53.1 °F 42.1 °F 66% 29.90 in 10.0 mi SW 5.8 mph - 0.02 in   Overcast
12:53 PM 57.0 °F 45.0 °F 64% 29.90 in 10.0 mi SSW 12.7 mph 19.6 mph N/A   Scattered Clouds
1:53 PM 57.9 °F 39.9 °F 51% 29.89 in 10.0 mi Variable 6.9 mph - N/A   Partly Cloudy
2:53 PM 57.9 °F 39.9 °F 51% 29.89 in 10.0 mi Variable 5.8 mph - 0.00 in Rain Light Rain
3:53 PM 57.0 °F 42.1 °F 57% 29.89 in 10.0 mi Variable 5.8 mph - 0.00 in   Overcast
4:53 PM 57.9 °F 39.0 °F 49% 29.90 in 10.0 mi WSW 5.8 mph - N/A   Overcast
5:53 PM 57.0 °F 41.0 °F 55% 29.94 in 10.0 mi Variable 4.6 mph - N/A   Overcast
6:53 PM 57.0 °F 43.0 °F 59% 29.97 in 10.0 mi SW 8.1 mph - N/A   Overcast
7:53 PM 55.9 °F 45.0 °F 67% 29.99 in 10.0 mi SW 5.8 mph - 0.00 in Rain Light Rain
8:53 PM 55.9 °F 46.9 °F 72% 30.01 in 10.0 mi South 3.5 mph - 0.01 in   Overcast
9:16 PM 55.4 °F 48.2 °F 77% 30.01 in 10.0 mi Calm Calm - N/A   Overcast
9:24 PM 55.4 °F 46.4 °F 72% 30.01 in 10.0 mi Calm Calm - N/A   Overcast
9:53 PM 57.0 °F 46.9 °F 69% 30.02 in 10.0 mi SW 6.9 mph - N/A   Overcast
10:53 PM 55.0 °F 46.0 °F 72% 30.02 in 10.0 mi Calm Calm - N/A   Scattered Clouds
11:53 PM 55.0 °F 46.0 °F 72% 30.01 in 10.0 mi South 4.6 mph - N/A   Overcast